一网星座-0448星 (ONEWEB-0448 )

导读

ONEWEB-0448是英国主导的OneWeb卫星互联网星座中的一颗通信卫星,于2022年2月10日发射入轨。OneWeb项目旨在通过近地轨道卫星星座,为全球提供可负担的高速宽带互联网接入服务。ONEWEB-0448运行在低地球轨道,属于Ku波段通信卫星,是OneWeb完成全球覆盖布局的重要组成部分,助力填补全球网络覆盖空白,尤其服务偏远地区网络接入需求。

基本信息
目录编号:
51641
目录名称:
ONEWEB-0448
国际标识:
2022-012V
轨道中心:
EARTH
卫星名称:
一网星座-0448星
卫星全名:
一网星座-0448星 (ONEWEB-0448 )
卫星状态:
在轨 (已飞行1585 天)
发射日期:
2022-02-10 UTC
国别 :
英国 (GB)
星等 :
--
轨道信息
数据来源 国际轨道数据 AOE轨道数据
星历时间 2026-06-14T05:24:54+0800
14小时前
查看轨道信息
2026-06-14T01:00:00+0800
18小时前
查看轨道信息
半长轴 7599.86km 7599.838km
偏心率 0.0001771 0.0002203
轨道倾角 87.883° 87.882°
近地点辐角 79.916° 65.537°
升交点赤经 36.937° 36.972°
平近点角 280.216° 147.304°
近地点 1220.377km 1220.026km
远地点 1223.069km 1223.376km
周期 109.892分钟 109.892分钟
每日圈数 13.103715 13.103772
详细信息
平衡模式:
三轴稳定
覆盖范围:
全球
运营商:
一网卫星公司
运营商所在国:
英国
制造商(研发单位):
一网卫星公司
制造商所在国:
英国
使用方式:
暂无
卫星简介
OneWeb卫星网络由648颗重约125公斤的微型卫星组成,运行在1200公里的轨道上。 每颗卫星都能够提供至少每秒8千兆位的吞吐量,以使用其高吞吐量的Ku频段有效载荷为家庭和移动平台提供互联网接入。该卫星仍在工作。
2D轨道图
3D轨道图
轨道高度分析图
轨道倾角分析图
轨道综合分析图
查看轨道综合分析图